Location: Unspecified
(52.4292°N, 19.3359°E)
Time: 01:07:38
(UTC+02:00)

Vanguard 1 Rocket - Pass Details

Date: 28 May 2024
Orbit: 649 x 4221 km, 34.3° (Epoch: 13 June)

Event Time Altitude Azimuth Distance (km) Brightness Sun altitude
Rises 08:57:30 0° 233° (SW) 8,447 12.0 37.7°
Reaches altitude 10° 09:04:18 10° 227° (SW) 7,272 11.8 38.7°
Maximum altitude 09:24:13 37° 171° (S) 4,177 11.5 41.6°
Drops below altitude 10° 09:36:45 10° 110° (ESE) 4,668 12.1 43.4°
Sets 09:39:58 0° 102° (ESE) 5,262 12.1 43.8°
